GW2622 Weather Reports


time (UTC)temp
C
wind
direction
speed
KPH
gust
KPH
rain 1hr
cm
rain 24hr
cm
rain mn
cm
humidity
%
barometer
mb
20260510221342 22 333 8.0 9.7 0.00 0.00 0.00 27 1019.3
20260510220838 21 332 6.4 11.3 0.00 0.00 0.00 27 1019.1
20260510220334 21 358 3.2 8.0 0.00 0.00 0.00 28 1019.3
20260510215830 21 331 11.3 12.9 0.00 0.00 0.00 27 1019.4
20260510215328 21 41 11.3 12.9 0.00 0.00 0.00 27 1019.3
20260510214825 21 330 8.0 14.5 0.00 0.00 0.00 26 1019.3
20260510214322 21 339 4.8 16.1 0.00 0.00 0.00 27 1019.4
20260510213819 22 246 4.8 14.5 0.00 0.00 0.00 26 1019.4
20260510213316 21 282 4.8 25.7 0.00 0.00 0.00 25 1019.5
20260510212812 21 322 19.3 22.5 0.00 0.00 0.00 25 1019.2
20260510212310 21 299 14.5 20.9 0.00 0.00 0.00 25 1019.5
20260510211807 21 329 4.8 8.0 0.00 0.00 0.00 30 1019.6
20260510211303 22 279 6.4 11.3 0.00 0.00 0.00 26 1019.6
20260510210758 21 265 3.2 4.8 0.00 0.00 0.00 26 1019.5
20260510210253 21 298 8.0 11.3 0.00 0.00 0.00 26 1019.7
20260510205752 22 341 4.8 8.0 0.00 0.00 0.00 29 1019.9
20260510205248 20 295 4.8 8.0 0.00 0.00 0.00 27 1019.8
20260510204744 21 299 8.0 14.5 0.00 0.00 0.00 26 1020.1
20260510204241 21 257 8.0 16.1 0.00 0.00 0.00 27 1020.0
20260510203738 22 247 3.2 4.8 0.00 0.00 0.00 28 1020.2
20260510203235 20 316 8.0 12.9 0.00 0.00 0.00 29 1020.2
20260510202735 21 275 8.0 14.5 0.00 0.00 0.00 28 1020.2
20260510202230 20 243 4.8 11.3 0.00 0.00 0.00 28 1020.3
20260510201728 20 308 6.4 22.5 0.00 0.00 0.00 29 1020.5
20260510201225 20 357 6.4 11.3 0.00 0.00 0.00 30 1020.4
20260510200721 20 356 8.0 20.9 0.00 0.00 0.00 29 1020.4
20260510200219 20 283 16.1 20.9 0.00 0.00 0.00 30 1020.3
20260510195716 20 323 6.4 8.0 0.00 0.00 0.00 29 1020.3
20260510195213 20 281 8.0 9.7 0.00 0.00 0.00 29 1020.4
20260510194711 20 294 11.3 14.5 0.00 0.00 0.00 28 1020.4
20260510194209 20 318 8.0 22.5 0.00 0.00 0.00 29 1020.5
20260510193704 20 283 1.6 8.0 0.00 0.00 0.00 31 1020.4
20260510193159 20 203 11.3 12.9 0.00 0.00 0.00 30 1020.4
20260510192655 19 14 6.4 20.9 0.00 0.00 0.00 30 1020.5
20260510192150 20 313 0.0 3.2 0.00 0.00 0.00 29 1020.8
20260510191647 20 242 9.7 11.3 0.00 0.00 0.00 31 1020.6
20260510191143 19 320 4.8 11.3 0.00 0.00 0.00 32 1020.7
20260510190641 19 13 4.8 14.5 0.00 0.00 0.00 29 1020.6
20260510190138 20 296 8.0 9.7 0.00 0.00 0.00 31 1020.7
20260510185635 20 238 4.8 9.7 0.00 0.00 0.00 30 1020.9
20260510185132 19 299 8.0 11.3 0.00 0.00 0.00 30 1020.8
20260510184629 18 13 4.8 22.5 0.00 0.00 0.00 31 1020.8
20260510184125 20 2 6.4 8.0 0.00 0.00 0.00 34 1020.8
20260510183621 18 318 1.6 8.0 0.00 0.00 0.00 36 1020.7
20260510183116 18 252 9.7 14.5 0.00 0.00 0.00 33 1020.9
20260510182613 19 314 6.4 8.0 0.00 0.00 0.00 32 1021.2
20260510182108 18 299 11.3 20.9 0.00 0.00 0.00 30 1021.2
20260510181606 18 346 6.4 8.0 0.00 0.00 0.00 31 1021.3
20260510181102 18 294 8.0 16.1 0.00 0.00 0.00 31 1021.2
20260510180558 18 297 9.7 20.9 0.00 0.00 0.00 33 1021.4
20260510180056 18 300 14.5 16.1 0.00 0.00 0.00 32 1021.3
20260510175551 17 302 6.4 14.5 0.00 0.00 0.00 34 1021.3
20260510175047 17 4 6.4 16.1 0.00 0.00 0.00 33 1021.3
20260510174545 17 322 1.6 11.3 0.00 0.00 0.00 33 1021.3
20260510174042 17 294 8.0 24.1 0.00 0.00 0.00 31 1021.3
20260510173537 18 14 8.0 17.7 0.00 0.00 0.00 33 1021.5
20260510173035 18 341 6.4 11.3 0.00 0.00 0.00 32 1021.5
20260510172530 17 354 1.6 3.2 0.00 0.00 0.00 32 1021.7
20260510172027 17 2 11.3 17.7 0.00 0.00 0.00 32 1021.6
20260510171523 17 311 1.6 11.3 0.00 0.00 0.00 32 1021.6
20260510171021 18 344 4.8 8.0 0.00 0.00 0.00 31 1021.7
20260510170517 17 313 1.6 8.0 0.00 0.00 0.00 32 1021.9
20260510170014 17 68 1.6 8.0 0.00 0.00 0.00 34 1021.8
20260510165509 17 253 4.8 11.3 0.00 0.00 0.00 32 1021.7
20260510165006 17 347 4.8 14.5 0.00 0.00 0.00 34 1021.8
20260510164503 17 292 0.0 3.2 0.00 0.00 0.00 34 1021.9
20260510163959 16 343 0.0 1.6 0.00 0.00 0.00 33 1021.9
20260510163454 16 33 4.8 4.8 0.00 0.00 0.00 33 1021.8
20260510162950 16 288 4.8 4.8 0.00 0.00 0.00 37 1022.0
20260510162447 16 304 3.2 9.7 0.00 0.00 0.00 33 1022.1
20260510161942 17 4 4.8 14.5 0.00 0.00 0.00 33 1022.1
20260510161432 16 333 8.0 11.3 0.00 0.00 0.00 34 1022.0
20260510160930 16 337 8.0 9.7 0.00 0.00 0.00 36 1022.1
20260510160427 16 276 4.8 8.0 0.00 0.00 0.00 35 1022.2
20260510155925 16 17 1.6 3.2 0.00 0.00 0.00 35 1021.9
20260510155422 16 208 3.2 3.2 0.00 0.00 0.00 35 1022.1
20260510154919 16 264 4.8 9.7 0.00 0.00 0.00 36 1022.1
20260510154415 16 33 1.6 3.2 0.00 0.00 0.00 35 1022.0
20260510153909 17 321 1.6 1.6 0.00 0.00 0.00 38 1021.9
20260510153406 16 249 3.2 8.0 0.00 0.00 0.00 37 1022.0
20260510152902 16 292 0.0 3.2 0.00 0.00 0.00 36 1021.8
20260510152400 16 251 3.2 4.8 0.00 0.00 0.00 36 1021.7
20260510151855 16 283 0.0 3.2 0.00 0.00 0.00 38 1021.5
20260510151354 15 329 3.2 9.7 0.00 0.00 0.00 40 1021.5
20260510150850 15 304 1.6 1.6 0.00 0.00 0.00 36 1021.4
20260510150345 15 260 1.6 3.2 0.00 0.00 0.00 38 1021.5
20260510145841 15 330 3.2 4.8 0.00 0.00 0.00 40 1021.4
20260510145338 14 348 1.6 3.2 0.00 0.00 0.00 40 1021.2
20260510144835 14 4 3.2 8.0 0.00 0.00 0.00 42 1021.1
20260510144331 15 325 1.6 1.6 0.00 0.00 0.00 41 1021.1
20260510143831 13 330 0.0 3.2 0.00 0.00 0.00 42 1021.2
20260510143327 14 319 3.2 4.8 0.00 0.00 0.00 42 1021.1
20260510142825 13 339 0.0 1.6 0.00 0.00 0.00 44 1020.8
20260510142321 13 345 0.0 1.6 0.00 0.00 0.00 44 1021.1
20260510141818 13 311 1.6 3.2 0.00 0.00 0.00 45 1021.2
20260510141316 12 296 1.6 3.2 0.00 0.00 0.00 48 1021.1
20260510140813 12 240 1.6 4.8 0.00 0.00 0.00 48 1020.7
20260510140308 13 292 0.0 1.6 0.00 0.00 0.00 47 1020.9
20260510135802 12 331 1.6 3.2 0.00 0.00 0.00 46 1020.8
20260510135258 11 323 0.0 1.6 0.00 0.00 0.00 49 1020.9
20260510134756 12 296 3.2 3.2 0.00 0.00 0.00 49 1020.5
20260510134253 11 296 4.8 4.8 0.00 0.00 0.00 51 1020.8
20260510133748 11 279 1.6 4.8 0.00 0.00 0.00 51 1020.7
20260510133244 11 299 1.6 3.2 0.00 0.00 0.00 52 1020.8
20260510132740 11 302 1.6 3.2 0.00 0.00 0.00 53 1020.7
20260510132238 11 283 1.6 1.6 0.00 0.00 0.00 51 1020.7
20260510131734 10 280 0.0 3.2 0.00 0.00 0.00 52 1020.5
20260510131233 10 279 1.6 3.2 0.00 0.00 0.00 55 1020.7
20260510130729 10 278 0.0 0.0 0.00 0.00 0.00 59 1020.7
20260510130226 10 279 0.0 1.6 0.00 0.00 0.00 59 1020.7
20260510125722 9 277 1.6 1.6 0.00 0.00 0.00 56 1020.6
20260510125218 8 286 1.6 1.6 0.00 0.00 0.00 59 1020.5
20260510124715 8 286 1.6 3.2 0.00 0.00 0.00 60 1020.4
20260510124213 8 289 1.6 4.8 0.00 0.00 0.00 60 1020.3
20260510123708 8 291 0.0 1.6 0.00 0.00 0.00 62 1020.6
20260510123204 7 285 1.6 3.2 0.00 0.00 0.00 62 1020.6
20260510122701 7 299 0.0 3.2 0.00 0.00 0.00 64 1020.4
20260510122157 7 299 1.6 3.2 0.00 0.00 0.00 64 1020.3
20260510121653 7 301 1.6 3.2 0.00 0.00 0.00 63 1020.2
20260510121150 6 301 3.2 3.2 0.00 0.00 0.00 64 1020.1
20260510120647 6 300 0.0 1.6 0.00 0.00 0.00 66 1020.1
20260510120143 6 300 0.0 1.6 0.00 0.00 0.00 67 1019.9
20260510115639 6 300 1.6 1.6 0.00 0.00 0.00 67 1019.9
20260510115138 5 301 1.6 1.6 0.00 0.00 0.00 69 1020.0
20260510114633 5 301 0.0 0.0 0.00 0.00 0.00 69 1019.9
20260510114129 5 301 0.0 1.6 0.00 0.00 0.00 68 1019.7
20260510113625 5 302 0.0 0.0 0.00 0.00 0.00 67 1019.8
20260510113122 5 305 0.0 1.6 0.00 0.00 0.00 68 1019.8
20260510112619 5 313 1.6 1.6 0.00 0.00 0.00 69 1019.8
20260510112115 5 313 0.0 1.6 0.00 0.00 0.00 70 1019.7
20260510111612 5 313 0.0 1.6 0.00 0.00 0.00 71 1019.8
20260510111108 5 314 0.0 1.6 0.00 0.00 0.00 71 1019.5
20260510110604 5 313 1.6 3.2 0.00 0.00 0.00 69 1019.3
20260510110100 5 313 1.6 1.6 0.00 0.00 0.00 69 1019.3
20260510105556 5 313 1.6 1.6 0.00 0.00 0.00 70 1019.4
20260510105051 5 313 0.0 1.6 0.00 0.00 0.00 68 1019.4
20260510104548 5 312 1.6 3.2 0.00 0.00 0.00 67 1019.4
20260510104044 5 314 0.0 1.6 0.00 0.00 0.00 68 1019.3
20260510103542 5 301 0.0 1.6 0.00 0.00 0.00 67 1019.2
20260510103038 5 301 0.0 1.6 0.00 0.00 0.00 66 1019.0
20260510102533 5 301 0.0 1.6 0.00 0.00 0.00 65 1019.1
20260510102030 5 301 0.0 1.6 0.00 0.00 0.00 66 1019.0
20260510101527 5 301 0.0 1.6 0.00 0.00 0.00 65 1018.9
20260510101026 6 300 1.6 3.2 0.00 0.00 0.00 64 1018.9
20260510100522 6 298 1.6 3.2 0.00 0.00 0.00 62 1018.9
20260510100019 6 297 1.6 3.2 0.00 0.00 0.00 61 1018.8
20260510095514 6 297 0.0 1.6 0.00 0.00 0.00 60 1018.7
20260510095014 6 296 1.6 1.6 0.00 0.00 0.00 58 1018.8
20260510094508 6 297 0.0 1.6 0.00 0.00 0.00 58 1018.6
20260510094004 6 297 1.6 1.6 0.00 0.00 0.00 57 1018.5
20260510093500 6 296 1.6 1.6 0.00 0.00 0.00 57 1018.5
20260510092957 6 296 0.0 3.2 0.00 0.00 0.00 57 1018.7
20260510092454 7 296 1.6 1.6 0.00 0.00 0.00 56 1018.6
20260510091948 7 296 1.6 1.6 0.00 0.00 0.00 55 1018.5
20260510091446 7 294 1.6 3.2 0.00 0.00 0.00 54 1018.4
20260510090942 7 300 1.6 1.6 0.00 0.00 0.00 55 1018.5
20260510090439 7 303 1.6 1.6 0.00 0.00 0.00 55 1018.5
20260510085934 7 304 0.0 1.6 0.00 0.00 0.00 52 1018.3
20260510085430 7 310 1.6 1.6 0.00 0.00 0.00 52 1018.4
20260510084925 7 324 1.6 1.6 0.00 0.00 0.00 52 1018.4
20260510084423 7 344 1.6 1.6 0.00 0.00 0.00 52 1018.4
20260510083920 7 345 0.0 0.0 0.00 0.00 0.00 50 1018.3
20260510083416 7 347 0.0 1.6 0.00 0.00 0.00 51 1018.3
20260510082911 8 347 1.6 3.2 0.00 0.00 0.00 50 1018.2
20260510082409 8 347 3.2 8.0 0.00 0.00 0.00 50 1018.1
20260510081908 8 338 1.6 4.8 0.00 0.00 0.00 49 1017.9
20260510081403 8 337 3.2 3.2 0.00 0.00 0.00 48 1018.1
20260510080900 8 334 1.6 1.6 0.00 0.00 0.00 50 1018.0
20260510080354 8 336 4.8 8.0 0.00 0.00 0.00 49 1018.0
20260510075852 7 338 1.6 3.2 0.00 0.00 0.00 51 1018.0
20260510075350 8 343 1.6 4.8 0.00 0.00 0.00 52 1017.8
20260510074845 8 310 0.0 0.0 0.00 0.00 0.00 48 1018.0
20260510074343 7 305 1.6 1.6 0.00 0.00 0.00 49 1017.8
20260510073839 8 303 0.0 0.0 0.00 0.00 0.00 48 1017.6
20260510073335 8 302 0.0 0.0 0.00 0.00 0.00 46 1017.6
20260510072831 9 302 0.0 0.0 0.00 0.00 0.00 45 1017.7
20260510072328 9 302 0.0 0.0 0.00 0.00 0.00 43 1017.5
20260510071819 10 307 0.0 1.6 0.00 0.00 0.00 44 1017.7
20260510071315 10 323 0.0 1.6 0.00 0.00 0.00 43 1017.3
20260510070814 10 323 0.0 0.0 0.00 0.00 0.00 43 1017.5
20260510070305 10 323 0.0 0.0 0.00 0.00 0.00 43 1017.1
20260510065805 10 324 1.6 1.6 0.00 0.00 0.00 41 1017.2
20260510065306 10 327 3.2 3.2 0.00 0.00 0.00 41 1016.9
20260510064758 10 325 1.6 3.2 0.00 0.00 0.00 41 1016.5
20260510064257 10 334 1.6 3.2 0.00 0.00 0.00 42 1016.7
20260510063752 10 331 3.2 4.8 0.00 0.00 0.00 41 1016.8
20260510063248 10 333 1.6 3.2 0.00 0.00 0.00 42 1016.7
20260510062745 11 335 1.6 3.2 0.00 0.00 0.00 41 1016.8
20260510062241 11 340 3.2 4.8 0.00 0.00 0.00 41 1016.5
20260510061736 11 343 3.2 8.0 0.00 0.00 0.00 40 1016.6
20260510061234 11 353 4.8 9.7 0.00 0.00 0.00 41 1016.5
20260510060730 11 6 4.8 9.7 0.00 0.00 0.00 40 1016.5
20260510060227 11 4 3.2 8.0 0.00 0.00 0.00 41 1016.3
20260510055723 11 354 6.4 9.7 0.00 0.00 0.00 40 1016.4
20260510055221 11 15 4.8 11.3 0.00 0.00 0.00 39 1015.9
20260510054716 12 11 4.8 12.9 0.00 0.00 0.00 38 1016.1
20260510054212 12 20 8.0 11.3 0.00 0.00 0.00 38 1015.9
20260510053711 12 25 6.4 12.9 0.00 0.00 0.00 38 1015.8
20260510053208 12 15 8.0 17.7 0.00 0.00 0.00 37 1015.8
20260510052704 12 18 11.3 16.1 0.00 0.00 0.00 37 1015.6
20260510052200 12 7 12.9 16.1 0.00 0.00 0.00 37 1015.6
20260510051656 12 3 14.5 17.7 0.00 0.00 0.00 37 1015.5
20260510051153 12 37 11.3 14.5 0.00 0.00 0.00 36 1015.5
20260510050650 12 358 12.9 20.9 0.00 0.00 0.00 37 1015.3
20260510050147 13 44 9.7 12.9 0.00 0.00 0.00 37 1015.3
20260510045644 12 349 9.7 14.5 0.00 0.00 0.00 37 1015.3
20260510045141 13 26 4.8 17.7 0.00 0.00 0.00 37 1015.2
20260510044636 13 27 11.3 16.1 0.00 0.00 0.00 37 1015.1
20260510044134 13 20 14.5 14.5 0.00 0.00 0.00 37 1015.3
20260510043630 13 329 11.3 14.5 0.00 0.00 0.00 38 1015.3
20260510043126 13 12 11.3 17.7 0.00 0.00 0.00 37 1015.2
20260510042624 13 10 9.7 12.9 0.00 0.00 0.00 38 1015.2
20260510042120 13 347 6.4 14.5 0.00 0.00 0.00 37 1015.1
20260510041617 13 17 9.7 12.9 0.00 0.00 0.00 39 1015.1
20260510041114 13 10 6.4 11.3 0.00 0.00 0.00 40 1014.9
20260510040611 13 340 4.8 12.9 0.00 0.00 0.00 40 1014.9
20260510040108 13 6 9.7 12.9 0.00 0.00 0.00 40 1014.8
20260510035604 13 355 8.0 9.7 0.00 0.00 0.00 40 1014.8
20260510035058 13 348 6.4 8.0 0.00 0.00 0.00 41 1014.5
20260510034556 13 25 8.0 14.5 0.00 0.00 0.00 39 1014.7
20260510034053 14 331 4.8 12.9 0.00 0.00 0.00 39 1014.5
20260510033549 14 4 6.4 14.5 0.00 0.00 0.00 40 1014.7
20260510033047 14 10 4.8 9.7 0.00 0.00 0.00 39 1014.6
20260510032543 14 0 4.8 8.0 0.00 0.00 0.00 40 1014.7
20260510032038 14 341 4.8 8.0 0.00 0.00 0.00 40 1014.3
20260510031533 14 8 4.8 8.0 0.00 0.00 0.00 40 1014.1
20260510031029 15 358 3.2 4.8 0.00 0.00 0.00 39 1014.2
20260510030526 15 345 4.8 11.3 0.00 0.00 0.00 38 1014.1
20260510030023 15 5 4.8 14.5 0.00 0.00 0.00 37 1014.1
20260510025520 15 15 11.3 11.3 0.00 0.00 0.00 38 1013.6
20260510025018 15 1 4.8 9.7 0.00 0.00 0.00 39 1013.7
20260510024514 15 342 4.8 11.3 0.00 0.00 0.00 39 1013.5
20260510024009 15 18 6.4 12.9 0.00 0.00 0.00 38 1013.5
20260510023500 16 6 4.8 9.7 0.00 0.00 0.00 37 1013.4
20260510022958 16 343 4.8 11.3 0.00 0.00 0.00 38 1013.5
20260510022457 16 23 16.1 20.9 0.00 0.00 0.00 37 1013.0
20260510021956 16 22 6.4 14.5 0.00 0.00 0.00 38 1013.1
20260510021454 16 338 11.3 14.5 0.00 0.00 0.00 37 1012.9
20260510020950 16 306 12.9 16.1 0.00 0.00 0.00 37 1012.7
20260510020445 16 342 12.9 14.5 0.00 0.00 0.00 39 1012.4
20260510015941 16 345 6.4 9.7 0.00 0.00 0.00 40 1012.4
20260510015437 16 359 8.0 9.7 0.00 0.00 0.00 40 1012.3
20260510014932 16 331 4.8 11.3 0.00 0.00 0.00 41 1012.2
20260510014430 16 358 6.4 11.3 0.00 0.00 0.00 40 1012.2
20260510013926 16 347 4.8 8.0 0.00 0.00 0.00 39 1011.9
20260510013421 16 347 4.8 9.7 0.00 0.00 0.00 39 1012.0
20260510012917 17 9 6.4 9.7 0.00 0.00 0.00 38 1011.8
20260510012412 17 351 6.4 12.9 0.00 0.00 0.00 38 1011.7
20260510011906 17 0 8.0 16.1 0.00 0.00 0.00 38 1011.5
20260510011401 17 333 8.0 9.7 0.00 0.00 0.00 38 1011.8
20260510010858 17 356 6.4 8.0 0.00 0.00 0.00 37 1011.5
20260510010350 18 344 4.8 9.7 0.00 0.00 0.00 36 1011.4
20260510005846 18 58 6.4 11.3 0.00 0.00 0.00 37 1011.5
20260510005343 18 331 8.0 14.5 0.00 0.00 0.00 36 1011.3
20260510004840 18 1 16.1 20.9 0.00 0.00 0.00 36 1011.2
20260510004338 18 1 8.0 14.5 0.00 0.00 0.00 37 1011.3
20260510003836 19 7 14.5 24.1 0.00 0.00 0.00 35 1011.2
20260510003332 19 331 16.1 25.7 0.00 0.00 0.00 35 1010.9
20260510002831 19 8 8.0 17.7 0.00 0.00 0.00 37 1010.8
20260510002328 20 357 6.4 12.9 0.00 0.00 0.00 37 1010.5
20260510001825 20 348 14.5 16.1 0.00 0.00 0.00 35 1010.6
20260510001323 20 8 14.5 20.9 0.00 0.00 0.00 36 1010.6
20260510000819 20 10 8.0 12.9 0.00 0.00 0.00 36 1010.5
20260510000318 20 3 11.3 12.9 0.00 0.00 0.00 36 1010.5
20260509235813 20 25 8.0 16.1 0.00 0.00 0.00 36 1010.5
20260509235310 20 26 12.9 24.1 0.00 0.00 0.00 36 1010.2
20260509234805 20 341 8.0 14.5 0.00 0.00 0.00 35 1010.4
20260509234302 20 343 11.3 16.1 0.00 0.00 0.00 36 1010.4
20260509233801 20 37 12.9 17.7 0.00 0.00 0.00 35 1010.2
20260509233258 20 15 8.0 12.9 0.00 0.00 0.00 39 1010.4
20260509232754 20 346 9.7 17.7 0.00 0.00 0.00 38 1010.2
20260509232251 20 349 11.3 17.7 0.00 0.00 0.00 40 1010.2
20260509231747 20 353 8.0 11.3 0.00 0.00 0.00 41 1010.0
20260509231244 20 43 4.8 16.1 0.00 0.00 0.00 41 1010.2
20260509230742 20 36 4.8 12.9 0.00 0.00 0.00 43 1009.9
20260509230239 20 36 12.9 17.7 0.00 0.00 0.00 43 1009.9
20260509225734 20 354 14.5 16.1 0.00 0.00 0.00 44 1009.8
20260509225230 20 339 8.0 16.1 0.00 0.00 0.00 45 1009.7
20260509224726 20 30 6.4 17.7 0.00 0.00 0.00 44 1009.6
20260509224224 20 278 11.3 14.5 0.00 0.00 0.00 42 1009.2
20260509223720 20 23 9.7 17.7 0.00 0.00 0.00 45 1009.5
20260509223217 20 343 6.4 16.1 0.00 0.00 0.00 46 1009.5
20260509222714 20 328 8.0 12.9 0.00 0.00 0.00 48 1009.3
20260509222209 20 322 11.3 12.9 0.00 0.00 0.00 47 1009.4
20260509221705 20 9 3.2 12.9 0.00 0.00 0.00 49 1009.2